Location: Holyhead Bay
(53.3667°N, 4.6667°W)
Time: 23:09:24
(UTC+00:00)

Cosmos 1602 Rocket - Visible Passes

Search period start: 24 June 2021 00:00
Search period end: 04 July 2021 00:00
Orbit: 604 x 633 km, 82.5° (Epoch: 24 June)

Date Brightness Start Highest point End Pass type
(mag) Time Alt. Az. Time Alt. Az. Time Alt. Az.
24 Jun 5.1 00:48:26 10° SW 00:52:21 29° WNW 00:56:16 10° N visible
24 Jun 3.7 23:28:09 18° S 23:31:24 68° E 23:35:51 10° NNE visible
25 Jun 5.7 01:06:32 10° WSW 01:09:44 19° WNW 01:12:58 10° NNW visible
25 Jun 5.5 22:08:27 10° ESE 22:11:13 16° E 22:13:59 10° NE visible
25 Jun 3.7 23:45:01 16° SSW 23:48:32 73° WNW 23:53:01 10° N visible
26 Jun 6.1 01:25:17 10° W 01:27:15 13° WNW 01:29:12 10° NNW visible
26 Jun 4.9 22:24:44 12° SE 22:28:05 26° E 22:31:47 10° NNE visible
27 Jun 4.5 00:01:51 12° SW 00:05:44 44° WNW 00:10:02 10° N visible
27 Jun 4.2 22:41:33 14° SSE 22:45:02 42° E 22:49:15 10° NNE visible
28 Jun 5.2 00:19:10 10° SW 00:23:03 28° WNW 00:26:55 10° N visible
28 Jun 3.6 22:58:22 15° S 23:02:05 70° E 23:06:32 10° NNE visible
29 Jun 5.9 00:37:18 10° WSW 00:40:26 19° WNW 00:43:36 10° NNW visible
29 Jun 5.4 21:39:04 10° ESE 21:41:53 17° E 21:44:42 10° NE visible
29 Jun 3.8 23:15:09 12° SSW 23:19:13 71° WNW 23:23:41 10° N visible
30 Jun 6.2 00:56:07 10° W 00:57:57 12° NW 00:59:46 10° NNW visible
30 Jun 4.8 21:55:02 10° SE 21:58:45 26° E 22:02:29 10° NNE visible
30 Jun 4.6 23:32:10 10° SW 23:36:26 43° WNW 23:40:41 10° N visible
01 Jul 4.1 22:11:33 10° SSE 22:15:43 43° E 22:19:56 10° NNE visible
01 Jul 5.4 23:49:55 10° SW 23:53:44 27° WNW 23:57:34 10° N visible
02 Jul 3.6 22:28:19 10° S 22:32:46 72° E 22:37:12 10° NNE visible
03 Jul 6.0 00:08:03 10° WSW 00:11:09 18° WNW 00:14:14 10° NNW visible
03 Jul 3.8 22:45:27 10° SSW 22:49:53 69° WNW 22:54:20 10° N visible
